Location: Unspecified
(0.0000°N, 0.0000°E)
Time: 07:38:02
(UTC+00:00)

Courier 1B Rocket - Pass Details

Date: 19 December 2018
Orbit: 920 x 1202 km, 28.2° (Epoch: 18 March)

Event Time Altitude Azimuth Distance (km) Brightness Sun altitude
Rises 15:26:25 0° 300° (WNW) 3,959 8.6 34.1°
Reaches altitude 10° 15:29:08 10° 300° (WNW) 3,034 8.1 33.5°
Maximum altitude 15:36:46 88° 211° (SSW) 1,188 6.1 31.8°
Drops below altitude 10° 15:44:39 10° 121° (ESE) 3,132 7.5 30.1°
Sets 15:47:30 0° 121° (ESE) 4,093 8.0 29.5°
